Regional Weather Roundup
Issued by NWS New Orleans/Baton Rouge, LA

Home | Current Version | Previous Version | Text Only | Print | Product List | Glossary Off
Versions: 1 2 3 4 5 6 7 8 9 10 11 12 13 14 15 16 17 18 19 20 21 22 23 24 25 26 27 28 29 30 31 32 33 34 35 36 37 38 39 40 41 42 43 44 45 46 47 48 49 50

968
ASUS44 KLIX 291305
RWRLIX
NEW ORLEANS REGIONAL WEATHER ROUNDUP
NATIONAL WEATHER SERVICE NEW ORLEANS LA
800 AM CDT TUE JUL 29 2014

NOTE: "FAIR" INDICATES FEW OR NO CLOUDS BELOW 12,000 FEET WITH NO
      SIGNIFICANT WEATHER AND/OR OBSTRUCTIONS TO VISIBILITY.
      SKY/WX - SKY CONDITION AND SIGNIFICANT WEATHER.
      TMP - AIR TEMPERATURE.     DP    - DEWPOINT TEMPERATURE.
      RH  - RELATIVE HUMIDITY.   PRES  - PRESSURE.
      HI  - HEAT INDEX.          WCI   - WIND CHILL INDEX.

*  THESE STATIONS ARE NOT NWS OR FAA STATIONS AND ARE NOT UNDER
   NWS QUALITY CONTROL.

LAZ038-040-048-061>063-065>067-069-291400-
SOUTHEAST LOUISIANA

CITY           SKY/WX    TMP DP  RH WIND       PRES   REMARKS
N.O. AUDUBON   NOT AVBL
N.O. INTL ARPT CLOUDY    81  69  67 NE10      30.06R
N.O. LAKEFRONT PTSUNNY   80  68  66 NE10      30.06R
N.O. DOWNTOWN*   N/A     81  66  61 N7        30.07R
SLIDELL        PTSUNNY   74  69  85 N3        30.05R
BATON ROUGE    CLOUDY    76  69  79 CALM      30.08R
BOOTHVILLE     PTSUNNY   82  72  71 N6        30.05R
BELLE CHASSE   CLOUDY    80  69  69 NE3       30.06R
BOGALUSA*        N/A     74  67  79 CALM      30.08R
GALLIANO*      NOT AVBL
NEW ROADS*     CLOUDY    75  71  85 CALM      30.09R
GONZALES*      CLOUDY    76  74  94 CALM      30.07R
HAMMOND*       PTSUNNY   75  68  78 CALM      30.08R
HOUMA*         CLOUDY    79  72  78 NW7       30.07R
PORT FOURCHON* PTSUNNY   82  73  74 N8        30.06S

$$

MSZ070-080>082-291400-
SOUTHERN MISSISSIPPI

CITY           SKY/WX    TMP DP  RH WIND       PRES   REMARKS
MCCOMB         MOSUNNY   74  66  76 N3        30.08R
GULFPORT       MOSUNNY   81  67  62 NE7       30.04R
BILOXI         MOSUNNY   76  67  73 NE7       30.05R
PASCAGOULA     SUNNY     76  69  79 N6        30.04R
STENNIS ARPT*  SUNNY    N/A N/A N/A NE7       30.05R

$$

COASTAL OBSERVATIONS
LAKE AND NEARSHORE STATIONS

STATION/POSITION TIME  TEMP    WIND        PRES    WAVE
                       AIR SEA DIR/SP/G            HT/PER
                 (UTC) (F)     (DEG/KT/KT) (MB)    (FT/S)
PASCAGOULA       1300   77     360/  8/ 11 1016.5
WAVELAND YACHT   1300   76      30/  9/ 10 1016.8
GRAND ISLE       1300   82 87   30/  9/ 11 1018.0
SOUTHWEST PASS   1300   85 84   10/ 10/ 11 1017.3
NEW CANAL        1300   80 83   50/ 10/ 11 1018.3
SHELL BEACH      1300   80 81   30/ 10/ 13 1017.4

OFFSHORE STATIONS

STATION/POSITION TIME  TEMP    WIND        PRES    WAVE
                       AIR SEA DIR/SP/G            HT/PER
                 (UTC) (F)     (DEG/KT/KT) (MB)    (FT/S)
64 S DAUPHIN ISL 1250   83 85   40/ 12/ 14 1016.3

$$




USA.gov is the U.S. government's official web portal to all federal, state and local government web resources and services.